| time (UTC) | temp C | wind direction | speed KPH | gust KPH | rain 1hr cm | rain 24hr cm | rain mn cm | humidity % | barometer mb |
| 20260906135457 | 21 | 153 | 3.2 | 11.3 | 0.00 | 0.00 | 0.00 | 85 | 1020.7 |
| 20260906135000 | 21 | 127 | 3.2 | 11.3 | 0.00 | 0.00 | 0.00 | 87 | 1020.8 |
| 20260906134458 | 20 | 86 | 4.8 | 12.9 | 0.00 | 0.00 | 0.00 | 89 | 1020.8 |
| 20260906133956 | 20 | 121 | 3.2 | 12.9 | 0.00 | 0.00 | 0.00 | 90 | 1020.8 |
| 20260906132956 | 20 | 94 | 3.2 | 11.3 | 0.00 | 0.00 | 0.00 | 91 | 1020.6 |
| 20260906132458 | 19 | 117 | 1.6 | 9.7 | 0.00 | 0.00 | 0.00 | 91 | 1020.6 |
| 20260906131957 | 19 | 72 | 1.6 | 8.0 | 0.00 | 0.00 | 0.00 | 92 | 1020.5 |
| 20260906130959 | 18 | 103 | 3.2 | 9.7 | 0.00 | 0.00 | 0.00 | 92 | 1020.3 |
| 20260906125958 | 18 | 100 | 1.6 | 6.4 | 0.00 | 0.00 | 0.00 | 92 | 1020.2 |
| 20260906125456 | 18 | 126 | 1.6 | 9.7 | 0.00 | 0.00 | 0.00 | 92 | 1020.1 |
| 20260906124958 | 18 | 128 | 1.6 | 9.7 | 0.00 | 0.00 | 0.00 | 92 | 1019.9 |
| 20260906124456 | 18 | 99 | 0.0 | 0.0 | 0.00 | 0.00 | 0.00 | 92 | 1019.9 |
| 20260906123500 | 17 | 15 | 0.0 | 0.0 | 0.00 | 0.00 | 0.00 | 92 | 1019.9 |
| 20260906122957 | 17 | 15 | 0.0 | 0.0 | 0.00 | 0.00 | 0.00 | 92 | 1020.0 |
| 20260906122457 | 17 | 15 | 0.0 | 0.0 | 0.00 | 0.00 | 0.00 | 92 | 1019.9 |
| 20260906121459 | 17 | 15 | 0.0 | 0.0 | 0.00 | 0.00 | 0.00 | 91 | 1019.9 |
| 20260906120957 | 17 | 15 | 0.0 | 0.0 | 0.00 | 0.00 | 0.00 | 91 | 1019.9 |
| 20260906120456 | 17 | 15 | 0.0 | 0.0 | 0.00 | 0.00 | 0.00 | 91 | 1019.7 |
| 20260906120001 | 17 | 15 | 0.0 | 0.0 | 0.00 | 0.00 | 0.00 | 91 | 1019.6 |
| 20260906115457 | 17 | 15 | 0.0 | 0.0 | 0.00 | 0.00 | 0.00 | 92 | 1019.5 |
| 20260906114957 | 17 | 15 | 0.0 | 0.0 | 0.00 | 0.00 | 0.00 | 92 | 1019.5 |
| 20260906114456 | 17 | 15 | 0.0 | 0.0 | 0.00 | 0.00 | 0.00 | 92 | 1019.5 |
| 20260906113958 | 17 | 15 | 0.0 | 0.0 | 0.00 | 0.00 | 0.00 | 91 | 1019.5 |
| 20260906113456 | 17 | 15 | 0.0 | 0.0 | 0.00 | 0.00 | 0.00 | 91 | 1019.2 |
| 20260906112957 | 17 | 15 | 0.0 | 0.0 | 0.00 | 0.00 | 0.00 | 91 | 1019.0 |
| 20260906112457 | 17 | 15 | 0.0 | 0.0 | 0.00 | 0.00 | 0.00 | 91 | 1019.0 |
| 20260906110957 | 18 | 15 | 0.0 | 0.0 | 0.00 | 0.00 | 0.00 | 91 | 1019.0 |
| 20260906110456 | 18 | 15 | 0.0 | 0.0 | 0.00 | 0.00 | 0.00 | 91 | 1018.8 |
| 20260906110001 | 18 | 15 | 0.0 | 0.0 | 0.00 | 0.00 | 0.00 | 91 | 1018.9 |
| 20260906105456 | 18 | 15 | 0.0 | 0.0 | 0.00 | 0.00 | 0.00 | 91 | 1018.9 |
| 20260906104956 | 18 | 5 | 0.0 | 0.0 | 0.00 | 0.00 | 0.00 | 91 | 1019.0 |
| 20260906103958 | 18 | 9 | 0.0 | 0.0 | 0.00 | 0.00 | 0.00 | 91 | 1018.9 |
| 20260906103456 | 18 | 324 | 0.0 | 0.0 | 0.00 | 0.00 | 0.00 | 91 | 1019.0 |
| 20260906102956 | 18 | 324 | 0.0 | 0.0 | 0.00 | 0.00 | 0.00 | 91 | 1019.1 |
| 20260906101959 | 18 | 324 | 0.0 | 0.0 | 0.00 | 0.00 | 0.00 | 91 | 1018.9 |
| 20260906101456 | 18 | 324 | 0.0 | 0.0 | 0.00 | 0.00 | 0.00 | 91 | 1018.8 |
| 20260906100955 | 18 | 324 | 0.0 | 0.0 | 0.00 | 0.00 | 0.00 | 91 | 1018.8 |
| 20260906100456 | 17 | 324 | 0.0 | 0.0 | 0.00 | 0.00 | 0.00 | 91 | 1018.8 |
| 20260906100000 | 17 | 324 | 0.0 | 0.0 | 0.00 | 0.00 | 0.00 | 91 | 1018.8 |
| 20260906095456 | 17 | 324 | 0.0 | 0.0 | 0.00 | 0.00 | 0.00 | 91 | 1018.8 |
| 20260906094959 | 17 | 324 | 0.0 | 0.0 | 0.00 | 0.00 | 0.00 | 91 | 1018.8 |
| 20260906093956 | 17 | 324 | 0.0 | 0.0 | 0.00 | 0.00 | 0.00 | 91 | 1018.7 |
| 20260906093456 | 17 | 324 | 0.0 | 0.0 | 0.00 | 0.00 | 0.00 | 91 | 1018.7 |
| 20260906092959 | 17 | 324 | 0.0 | 0.0 | 0.00 | 0.00 | 0.00 | 91 | 1018.6 |
| 20260906092456 | 17 | 324 | 0.0 | 0.0 | 0.00 | 0.00 | 0.00 | 91 | 1018.6 |
| 20260906091956 | 17 | 324 | 0.0 | 0.0 | 0.00 | 0.00 | 0.00 | 91 | 1018.6 |
| 20260906090959 | 17 | 324 | 0.0 | 0.0 | 0.00 | 0.00 | 0.00 | 91 | 1018.6 |
| 20260906090456 | 17 | 324 | 0.0 | 0.0 | 0.00 | 0.00 | 0.00 | 91 | 1018.7 |
| 20260906085959 | 17 | 324 | 0.0 | 0.0 | 0.00 | 0.00 | 0.00 | 91 | 1018.7 |
| 20260906084956 | 18 | 324 | 0.0 | 0.0 | 0.00 | 0.00 | 0.00 | 91 | 1018.7 |
| 20260906084456 | 18 | 324 | 0.0 | 0.0 | 0.00 | 0.00 | 0.00 | 91 | 1018.7 |
| 20260906083958 | 18 | 324 | 0.0 | 0.0 | 0.00 | 0.00 | 0.00 | 91 | 1018.7 |
| 20260906082957 | 18 | 324 | 0.0 | 0.0 | 0.00 | 0.00 | 0.00 | 91 | 1018.5 |
| 20260906082456 | 18 | 324 | 0.0 | 0.0 | 0.00 | 0.00 | 0.00 | 91 | 1018.5 |
| 20260906081957 | 18 | 324 | 0.0 | 0.0 | 0.00 | 0.00 | 0.00 | 91 | 1018.5 |
| 20260906081459 | 18 | 324 | 0.0 | 0.0 | 0.00 | 0.00 | 0.00 | 91 | 1018.5 |
| 20260906080956 | 18 | 324 | 0.0 | 0.0 | 0.00 | 0.00 | 0.00 | 91 | 1018.6 |
| 20260906080456 | 18 | 324 | 0.0 | 0.0 | 0.00 | 0.00 | 0.00 | 91 | 1018.5 |
| 20260906075958 | 18 | 324 | 0.0 | 0.0 | 0.00 | 0.00 | 0.00 | 91 | 1018.5 |
| 20260906075459 | 18 | 324 | 0.0 | 0.0 | 0.00 | 0.00 | 0.00 | 91 | 1018.5 |
| 20260906074956 | 18 | 324 | 0.0 | 0.0 | 0.00 | 0.00 | 0.00 | 91 | 1018.5 |
| 20260906074456 | 18 | 324 | 0.0 | 0.0 | 0.00 | 0.00 | 0.00 | 91 | 1018.5 |
| 20260906073957 | 18 | 324 | 0.0 | 0.0 | 0.00 | 0.00 | 0.00 | 91 | 1018.4 |
| 20260906073459 | 18 | 324 | 0.0 | 0.0 | 0.00 | 0.00 | 0.00 | 91 | 1018.3 |
| 20260906072956 | 18 | 324 | 0.0 | 0.0 | 0.00 | 0.00 | 0.00 | 91 | 1018.2 |
| 20260906072455 | 18 | 324 | 0.0 | 0.0 | 0.00 | 0.00 | 0.00 | 91 | 1018.2 |
| 20260906070955 | 18 | 324 | 0.0 | 0.0 | 0.00 | 0.00 | 0.00 | 91 | 1018.3 |
| 20260906070456 | 18 | 324 | 0.0 | 0.0 | 0.00 | 0.00 | 0.00 | 91 | 1018.2 |
| 20260906070000 | 18 | 324 | 0.0 | 0.0 | 0.00 | 0.00 | 0.00 | 91 | 1018.3 |
| 20260906065455 | 18 | 324 | 0.0 | 0.0 | 0.00 | 0.00 | 0.00 | 91 | 1018.3 |
| 20260906064955 | 18 | 341 | 0.0 | 0.0 | 0.00 | 0.00 | 0.00 | 91 | 1018.5 |
| 20260906064455 | 18 | 341 | 0.0 | 0.0 | 0.00 | 0.00 | 0.00 | 91 | 1018.5 |
| 20260906063958 | 18 | 341 | 0.0 | 0.0 | 0.00 | 0.00 | 0.00 | 91 | 1018.5 |
| 20260906063455 | 18 | 341 | 0.0 | 0.0 | 0.00 | 0.00 | 0.00 | 91 | 1018.5 |
| 20260906062955 | 18 | 341 | 0.0 | 0.0 | 0.00 | 0.00 | 0.00 | 91 | 1018.5 |
| 20260906062455 | 18 | 341 | 0.0 | 0.0 | 0.00 | 0.00 | 0.00 | 91 | 1018.5 |
| 20260906061957 | 18 | 341 | 0.0 | 0.0 | 0.00 | 0.00 | 0.00 | 91 | 1018.5 |
| 20260906061455 | 18 | 341 | 0.0 | 0.0 | 0.00 | 0.00 | 0.00 | 90 | 1018.5 |
| 20260906060458 | 18 | 341 | 0.0 | 0.0 | 0.00 | 0.00 | 0.00 | 90 | 1018.5 |
| 20260906055958 | 18 | 341 | 0.0 | 0.0 | 0.00 | 0.00 | 0.00 | 90 | 1018.4 |
| 20260906055456 | 18 | 341 | 0.0 | 0.0 | 0.00 | 0.00 | 0.00 | 90 | 1018.3 |
| 20260906054958 | 18 | 341 | 0.0 | 0.0 | 0.00 | 0.00 | 0.00 | 90 | 1018.3 |
| 20260906054456 | 18 | 341 | 0.0 | 0.0 | 0.00 | 0.00 | 0.00 | 90 | 1018.4 |
| 20260906053456 | 18 | 341 | 0.0 | 0.0 | 0.00 | 0.00 | 0.00 | 90 | 1018.4 |
| 20260906052958 | 18 | 341 | 0.0 | 0.0 | 0.00 | 0.00 | 0.00 | 90 | 1018.4 |
| 20260906052456 | 18 | 341 | 0.0 | 0.0 | 0.00 | 0.00 | 0.00 | 90 | 1018.4 |
| 20260906051956 | 18 | 341 | 0.0 | 0.0 | 0.00 | 0.00 | 0.00 | 90 | 1018.3 |
| 20260906051456 | 18 | 341 | 0.0 | 0.0 | 0.00 | 0.00 | 0.00 | 90 | 1018.3 |
| 20260906050959 | 18 | 315 | 0.0 | 0.0 | 0.00 | 0.00 | 0.00 | 90 | 1018.3 |
| 20260906050456 | 18 | 360 | 0.0 | 0.0 | 0.00 | 0.00 | 0.00 | 90 | 1018.3 |
| 20260906050005 | 18 | 344 | 0.0 | 0.0 | 0.00 | 0.00 | 0.00 | 90 | 1018.3 |
| 20260906045458 | 18 | 344 | 0.0 | 0.0 | 0.00 | 0.00 | 0.00 | 89 | 1018.3 |
| 20260906044958 | 18 | 344 | 0.0 | 0.0 | 0.00 | 0.00 | 0.00 | 89 | 1018.4 |
| 20260906043458 | 18 | 344 | 0.0 | 3.2 | 0.00 | 0.00 | 0.00 | 89 | 1018.1 |
| 20260906042458 | 18 | 5 | 0.0 | 0.0 | 0.00 | 0.00 | 0.00 | 89 | 1017.9 |
| 20260906041958 | 18 | 9 | 0.0 | 1.6 | 0.00 | 0.00 | 0.00 | 89 | 1017.9 |
| 20260906041458 | 18 | 9 | 0.0 | 1.6 | 0.00 | 0.00 | 0.00 | 89 | 1017.8 |
| 20260906041001 | 19 | 5 | 0.0 | 1.6 | 0.00 | 0.00 | 0.00 | 88 | 1017.7 |
| 20260906040459 | 19 | 14 | 0.0 | 3.2 | 0.00 | 0.00 | 0.00 | 88 | 1017.7 |
| 20260906035458 | 19 | 24 | 0.0 | 3.2 | 0.00 | 0.00 | 0.00 | 88 | 1017.8 |
| 20260906035001 | 19 | 24 | 0.0 | 3.2 | 0.00 | 0.00 | 0.00 | 88 | 1017.9 |
| 20260906034457 | 19 | 35 | 0.0 | 6.4 | 0.00 | 0.00 | 0.00 | 88 | 1017.9 |
| 20260906033958 | 19 | 53 | 1.6 | 6.4 | 0.00 | 0.00 | 0.00 | 88 | 1018.0 |
| 20260906033001 | 19 | 360 | 1.6 | 6.4 | 0.00 | 0.00 | 0.00 | 87 | 1017.8 |
| 20260906032458 | 19 | 49 | 1.6 | 8.0 | 0.00 | 0.00 | 0.00 | 87 | 1017.8 |
| 20260906031958 | 19 | 21 | 1.6 | 8.0 | 0.00 | 0.00 | 0.00 | 87 | 1017.7 |
| 20260906031457 | 19 | 40 | 0.0 | 6.4 | 0.00 | 0.00 | 0.00 | 87 | 1017.8 |
| 20260906025501 | 20 | 78 | 3.2 | 9.7 | 0.00 | 0.00 | 0.00 | 87 | 1017.8 |
| 20260906024958 | 20 | 55 | 3.2 | 9.7 | 0.00 | 0.00 | 0.00 | 86 | 1017.8 |
| 20260906024458 | 20 | 22 | 3.2 | 9.7 | 0.00 | 0.00 | 0.00 | 86 | 1017.6 |
| 20260906023957 | 20 | 30 | 3.2 | 9.7 | 0.00 | 0.00 | 0.00 | 86 | 1017.6 |
| 20260906023500 | 20 | 23 | 4.8 | 11.3 | 0.00 | 0.00 | 0.00 | 86 | 1017.6 |
| 20260906022958 | 20 | 25 | 4.8 | 14.5 | 0.00 | 0.00 | 0.00 | 86 | 1017.5 |
| 20260906022457 | 20 | 14 | 3.2 | 14.5 | 0.00 | 0.00 | 0.00 | 86 | 1017.5 |
| 20260906021958 | 20 | 34 | 3.2 | 12.9 | 0.00 | 0.00 | 0.00 | 86 | 1017.5 |
| 20260906020457 | 20 | 39 | 3.2 | 14.5 | 0.00 | 0.00 | 0.00 | 86 | 1017.6 |
| 20260906020001 | 20 | 28 | 1.6 | 12.9 | 0.00 | 0.00 | 0.00 | 86 | 1017.6 |
| 20260906015501 | 20 | 37 | 1.6 | 8.0 | 0.00 | 0.00 | 0.00 | 85 | 1017.5 |
| 20260906014958 | 20 | 5 | 1.6 | 8.0 | 0.00 | 0.00 | 0.00 | 85 | 1017.5 |
| 20260906014458 | 20 | 34 | 1.6 | 6.4 | 0.00 | 0.00 | 0.00 | 85 | 1017.7 |
| 20260906013958 | 20 | 23 | 1.6 | 8.0 | 0.00 | 0.00 | 0.00 | 85 | 1017.6 |
| 20260906013501 | 20 | 27 | 1.6 | 9.7 | 0.00 | 0.00 | 0.00 | 85 | 1017.6 |
| 20260906012959 | 20 | 40 | 1.6 | 6.4 | 0.00 | 0.00 | 0.00 | 85 | 1017.5 |
| 20260906012459 | 20 | 34 | 1.6 | 8.0 | 0.00 | 0.00 | 0.00 | 85 | 1017.5 |
| 20260906012001 | 21 | 25 | 1.6 | 8.0 | 0.00 | 0.00 | 0.00 | 85 | 1017.5 |
| 20260906011458 | 21 | 22 | 1.6 | 8.0 | 0.00 | 0.00 | 0.00 | 85 | 1017.5 |
| 20260906010958 | 21 | 30 | 1.6 | 8.0 | 0.00 | 0.00 | 0.00 | 85 | 1017.6 |
| 20260906010002 | 21 | 360 | 3.2 | 12.9 | 0.00 | 0.00 | 0.00 | 85 | 1017.6 |
| 20260906005458 | 21 | 19 | 3.2 | 14.5 | 0.00 | 0.00 | 0.00 | 85 | 1017.5 |
| 20260906004958 | 21 | 77 | 1.6 | 14.5 | 0.00 | 0.00 | 0.00 | 85 | 1017.4 |
| 20260906003458 | 21 | 38 | 1.6 | 9.7 | 0.00 | 0.00 | 0.00 | 86 | 1017.3 |
| 20260906002957 | 21 | 31 | 1.6 | 9.7 | 0.00 | 0.00 | 0.00 | 86 | 1017.3 |
| 20260906002500 | 21 | 49 | 1.6 | 8.0 | 0.00 | 0.00 | 0.00 | 86 | 1017.3 |
| 20260906001958 | 21 | 32 | 3.2 | 12.9 | 0.00 | 0.00 | 0.00 | 86 | 1017.3 |
| 20260906001457 | 21 | 17 | 4.8 | 14.5 | 0.00 | 0.00 | 0.00 | 86 | 1017.4 |
| 20260906001000 | 21 | 132 | 3.2 | 16.1 | 0.00 | 0.00 | 0.00 | 86 | 1017.4 |
| 20260906000458 | 21 | 36 | 3.2 | 12.9 | 0.00 | 0.00 | 0.00 | 86 | 1017.3 |
| 20260906000000 | 21 | 104 | 1.6 | 12.9 | 0.00 | 0.00 | 0.00 | 86 | 1017.3 |
| 20260905235500 | 21 | 355 | 3.2 | 14.5 | 0.00 | 0.00 | 0.00 | 86 | 1017.5 |
| 20260905234958 | 21 | 17 | 3.2 | 14.5 | 0.00 | 0.00 | 0.00 | 86 | 1017.5 |
| 20260905234458 | 21 | 28 | 3.2 | 12.9 | 0.00 | 0.00 | 0.00 | 86 | 1017.4 |
| 20260905233957 | 21 | 9 | 4.8 | 14.5 | 0.00 | 0.00 | 0.00 | 86 | 1017.5 |
| 20260905233501 | 21 | 17 | 3.2 | 14.5 | 0.00 | 0.00 | 0.00 | 86 | 1017.5 |
| 20260905232958 | 21 | 355 | 3.2 | 14.5 | 0.00 | 0.00 | 0.00 | 86 | 1017.5 |
| 20260905232458 | 21 | 21 | 4.8 | 14.5 | 0.00 | 0.00 | 0.00 | 86 | 1017.3 |
| 20260905231958 | 21 | 40 | 4.8 | 16.1 | 0.00 | 0.00 | 0.00 | 86 | 1017.4 |
| 20260905231459 | 21 | 27 | 4.8 | 16.1 | 0.00 | 0.00 | 0.00 | 86 | 1017.4 |
| 20260905230958 | 21 | 27 | 3.2 | 14.5 | 0.00 | 0.00 | 0.00 | 86 | 1017.4 |
| 20260905230458 | 22 | 52 | 3.2 | 12.9 | 0.00 | 0.00 | 0.00 | 86 | 1017.4 |
| 20260905230001 | 22 | 17 | 1.6 | 12.9 | 0.00 | 0.00 | 0.00 | 85 | 1017.4 |
| 20260905225458 | 22 | 30 | 3.2 | 12.9 | 0.00 | 0.00 | 0.00 | 85 | 1017.5 |
| 20260905225001 | 22 | 355 | 6.4 | 16.1 | 0.00 | 0.00 | 0.00 | 85 | 1017.4 |
| 20260905224457 | 22 | 17 | 4.8 | 16.1 | 0.00 | 0.00 | 0.00 | 85 | 1017.4 |
| 20260905223958 | 22 | 90 | 4.8 | 14.5 | 0.00 | 0.00 | 0.00 | 84 | 1017.4 |
| 20260905223458 | 22 | 15 | 4.8 | 14.5 | 0.00 | 0.00 | 0.00 | 84 | 1017.4 |
| 20260905223001 | 22 | 43 | 1.6 | 14.5 | 0.00 | 0.00 | 0.00 | 84 | 1017.2 |
| 20260905222458 | 22 | 85 | 4.8 | 20.9 | 0.00 | 0.00 | 0.00 | 84 | 1017.1 |
| 20260905221958 | 22 | 22 | 6.4 | 20.9 | 0.00 | 0.00 | 0.00 | 84 | 1017.1 |
| 20260905221458 | 22 | 340 | 4.8 | 19.3 | 0.00 | 0.00 | 0.00 | 83 | 1017.0 |
| 20260905221000 | 22 | 55 | 4.8 | 19.3 | 0.00 | 0.00 | 0.00 | 83 | 1016.9 |
| 20260905220458 | 22 | 15 | 4.8 | 20.9 | 0.00 | 0.00 | 0.00 | 83 | 1016.8 |
| 20260905215959 | 23 | 338 | 3.2 | 20.9 | 0.00 | 0.00 | 0.00 | 83 | 1016.9 |
| 20260905215500 | 23 | 337 | 3.2 | 19.3 | 0.00 | 0.00 | 0.00 | 83 | 1016.7 |
| 20260905213958 | 23 | 88 | 6.4 | 17.7 | 0.00 | 0.00 | 0.00 | 82 | 1016.7 |
| 20260905213500 | 23 | 38 | 8.0 | 22.5 | 0.00 | 0.00 | 0.00 | 82 | 1016.7 |
| 20260905212958 | 23 | 44 | 6.4 | 19.3 | 0.00 | 0.00 | 0.00 | 81 | 1016.6 |
| 20260905212457 | 23 | 64 | 4.8 | 20.9 | 0.00 | 0.00 | 0.00 | 81 | 1016.7 |
| 20260905211958 | 23 | 355 | 6.4 | 20.9 | 0.00 | 0.00 | 0.00 | 80 | 1016.7 |
| 20260905211500 | 23 | 56 | 6.4 | 16.1 | 0.00 | 0.00 | 0.00 | 79 | 1016.7 |
| 20260905210958 | 24 | 16 | 6.4 | 16.1 | 0.00 | 0.00 | 0.00 | 79 | 1016.5 |
| 20260905210457 | 24 | 39 | 4.8 | 16.1 | 0.00 | 0.00 | 0.00 | 79 | 1016.4 |
| 20260905210000 | 24 | 19 | 4.8 | 16.1 | 0.00 | 0.00 | 0.00 | 78 | 1016.4 |
| 20260905205501 | 25 | 40 | 4.8 | 16.1 | 0.00 | 0.00 | 0.00 | 78 | 1016.6 |
| 20260905204958 | 25 | 71 | 4.8 | 16.1 | 0.00 | 0.00 | 0.00 | 76 | 1016.6 |
| 20260905204457 | 25 | 53 | 4.8 | 17.7 | 0.00 | 0.00 | 0.00 | 76 | 1016.5 |
| 20260905203957 | 25 | 48 | 6.4 | 17.7 | 0.00 | 0.00 | 0.00 | 76 | 1016.5 |
| 20260905203458 | 26 | 54 | 4.8 | 16.1 | 0.00 | 0.00 | 0.00 | 76 | 1016.4 |
| 20260905202957 | 26 | 32 | 4.8 | 16.1 | 0.00 | 0.00 | 0.00 | 77 | 1016.4 |
| 20260905202458 | 26 | 31 | 4.8 | 14.5 | 0.00 | 0.00 | 0.00 | 77 | 1016.3 |
| 20260905202001 | 25 | 80 | 4.8 | 14.5 | 0.00 | 0.00 | 0.00 | 78 | 1016.3 |
| 20260905201458 | 25 | 17 | 4.8 | 19.3 | 0.00 | 0.00 | 0.00 | 77 | 1016.4 |
| 20260905200958 | 25 | 34 | 4.8 | 19.3 | 0.00 | 0.00 | 0.00 | 78 | 1016.4 |
| 20260905200458 | 25 | 67 | 4.8 | 14.5 | 0.00 | 0.00 | 0.00 | 78 | 1016.3 |
| 20260905200002 | 25 | 76 | 4.8 | 14.5 | 0.00 | 0.00 | 0.00 | 78 | 1016.3 |
| 20260905195456 | 25 | 5 | 6.4 | 17.7 | 0.00 | 0.00 | 0.00 | 79 | 1016.4 |
| 20260905194957 | 25 | 28 | 6.4 | 20.9 | 0.00 | 0.00 | 0.00 | 80 | 1016.5 |
| 20260905194457 | 25 | 5 | 4.8 | 17.7 | 0.00 | 0.00 | 0.00 | 79 | 1016.6 |
| 20260905193457 | 25 | 46 | 4.8 | 17.7 | 0.00 | 0.00 | 0.00 | 79 | 1016.5 |
| 20260905192956 | 25 | 21 | 6.4 | 19.3 | 0.00 | 0.00 | 0.00 | 79 | 1016.4 |
| 20260905192458 | 25 | 327 | 6.4 | 14.5 | 0.00 | 0.00 | 0.00 | 79 | 1016.4 |
| 20260905191958 | 25 | 333 | 6.4 | 22.5 | 0.00 | 0.00 | 0.00 | 78 | 1016.4 |
| 20260905191458 | 26 | 9 | 6.4 | 20.9 | 0.00 | 0.00 | 0.00 | 79 | 1016.4 |
| 20260905191000 | 26 | 37 | 6.4 | 20.9 | 0.00 | 0.00 | 0.00 | 79 | 1016.4 |
| 20260905190458 | 26 | 29 | 6.4 | 19.3 | 0.00 | 0.00 | 0.00 | 80 | 1016.4 |
| 20260905185959 | 26 | 67 | 6.4 | 17.7 | 0.00 | 0.00 | 0.00 | 79 | 1016.4 |
| 20260905185500 | 26 | 52 | 4.8 | 17.7 | 0.00 | 0.00 | 0.00 | 79 | 1016.4 |
| 20260905184456 | 26 | 33 | 4.8 | 19.3 | 0.00 | 0.00 | 0.00 | 78 | 1016.3 |
| 20260905183500 | 26 | 35 | 4.8 | 12.9 | 0.00 | 0.00 | 0.00 | 77 | 1016.3 |
| 20260905182956 | 26 | 47 | 3.2 | 12.9 | 0.00 | 0.00 | 0.00 | 77 | 1016.3 |
| 20260905182457 | 26 | 37 | 3.2 | 12.9 | 0.00 | 0.00 | 0.00 | 77 | 1016.3 |
| 20260905181500 | 26 | 19 | 4.8 | 16.1 | 0.00 | 0.00 | 0.00 | 77 | 1016.4 |
| 20260905180958 | 26 | 22 | 3.2 | 14.5 | 0.00 | 0.00 | 0.00 | 77 | 1016.3 |
| 20260905180458 | 26 | 26 | 4.8 | 14.5 | 0.00 | 0.00 | 0.00 | 76 | 1016.4 |
| 20260905180001 | 26 | 15 | 4.8 | 14.5 | 0.00 | 0.00 | 0.00 | 76 | 1016.3 |
| 20260905175456 | 26 | 30 | 3.2 | 14.5 | 0.00 | 0.00 | 0.00 | 77 | 1016.3 |
| 20260905174957 | 26 | 333 | 4.8 | 17.7 | 0.00 | 0.00 | 0.00 | 78 | 1016.2 |
| 20260905174456 | 26 | 31 | 3.2 | 17.7 | 0.00 | 0.00 | 0.00 | 78 | 1016.2 |
| 20260905173959 | 26 | 39 | 3.2 | 11.3 | 0.00 | 0.00 | 0.00 | 78 | 1016.3 |
| 20260905172956 | 26 | 49 | 4.8 | 12.9 | 0.00 | 0.00 | 0.00 | 80 | 1016.3 |
| 20260905172457 | 26 | 9 | 3.2 | 9.7 | 0.00 | 0.00 | 0.00 | 79 | 1016.4 |
| 20260905171959 | 26 | 22 | 3.2 | 14.5 | 0.00 | 0.00 | 0.00 | 79 | 1016.3 |
| 20260905171457 | 26 | 19 | 3.2 | 14.5 | 0.00 | 0.00 | 0.00 | 78 | 1016.3 |
| 20260905170957 | 26 | 78 | 3.2 | 17.7 | 0.00 | 0.00 | 0.00 | 78 | 1016.3 |
| 20260905170456 | 26 | 49 | 3.2 | 17.7 | 0.00 | 0.00 | 0.00 | 78 | 1016.4 |
| 20260905170001 | 26 | 28 | 1.6 | 12.9 | 0.00 | 0.00 | 0.00 | 79 | 1016.3 |
| 20260905164956 | 25 | 31 | 1.6 | 9.7 | 0.00 | 0.03 | 0.00 | 82 | 1016.5 |
| 20260905164457 | 25 | 355 | 1.6 | 8.0 | 0.00 | 0.03 | 0.00 | 81 | 1016.6 |
| 20260905163959 | 25 | 21 | 3.2 | 9.7 | 0.00 | 0.03 | 0.00 | 81 | 1016.5 |
| 20260905163457 | 25 | 34 | 3.2 | 9.7 | 0.00 | 0.03 | 0.00 | 82 | 1016.4 |
| 20260905162956 | 25 | 36 | 3.2 | 9.7 | 0.00 | 0.03 | 0.00 | 82 | 1016.4 |
| 20260905161959 | 25 | 82 | 1.6 | 6.4 | 0.00 | 0.03 | 0.00 | 84 | 1016.4 |
| 20260905161457 | 24 | 35 | 1.6 | 6.4 | 0.00 | 0.03 | 0.00 | 84 | 1016.5 |
| 20260905160957 | 24 | 28 | 3.2 | 8.0 | 0.00 | 0.03 | 0.00 | 85 | 1016.6 |
| 20260905160456 | 24 | 338 | 3.2 | 12.9 | 0.00 | 0.03 | 0.00 | 85 | 1016.5 |
| 20260905155457 | 24 | 17 | 4.8 | 17.7 | 0.00 | 0.53 | 0.00 | 86 | 1016.5 |
| 20260905154956 | 23 | 22 | 3.2 | 8.0 | 0.00 | 0.53 | 0.00 | 87 | 1016.4 |
| 20260905154457 | 23 | 18 | 1.6 | 8.0 | 0.00 | 0.53 | 0.00 | 87 | 1016.4 |
| 20260905153959 | 23 | 63 | 1.6 | 6.4 | 0.00 | 0.53 | 0.00 | 87 | 1016.4 |
| 20260905153456 | 23 | 38 | 1.6 | 6.4 | 0.00 | 0.53 | 0.00 | 88 | 1016.4 |
| 20260905152956 | 23 | 348 | 3.2 | 9.7 | 0.00 | 0.53 | 0.00 | 88 | 1016.4 |
| 20260905151959 | 23 | 58 | 3.2 | 14.5 | 0.00 | 0.53 | 0.00 | 88 | 1016.3 |
| 20260905151456 | 23 | 31 | 3.2 | 14.5 | 0.00 | 0.53 | 0.00 | 89 | 1016.2 |
| 20260905150957 | 23 | 44 | 3.2 | 14.5 | 0.00 | 0.53 | 0.00 | 89 | 1016.1 |
| 20260905150457 | 23 | 43 | 3.2 | 14.5 | 0.00 | 0.53 | 0.00 | 89 | 1016.1 |
| 20260905150001 | 23 | 115 | 4.8 | 14.5 | 0.00 | 0.53 | 0.00 | 90 | 1016.1 |
| 20260905145456 | 23 | 33 | 3.2 | 14.5 | 0.00 | 0.84 | 0.00 | 90 | 1016.0 |
| 20260905144957 | 23 | 323 | 4.8 | 14.5 | 0.00 | 0.84 | 0.00 | 91 | 1016.0 |
| 20260905144500 | 23 | 40 | 3.2 | 14.5 | 0.00 | 0.84 | 0.00 | 91 | 1015.9 |
| 20260905143957 | 22 | 24 | 1.6 | 8.0 | 0.00 | 0.84 | 0.00 | 91 | 1015.8 |
| 20260905143456 | 22 | 37 | 3.2 | 12.9 | 0.00 | 0.84 | 0.00 | 91 | 1015.7 |
| 20260905142959 | 22 | 37 | 3.2 | 12.9 | 0.00 | 0.84 | 0.00 | 91 | 1015.6 |
| 20260905142456 | 22 | 355 | 3.2 | 8.0 | 0.00 | 0.84 | 0.00 | 91 | 1015.6 |
| 20260905141957 | 22 | 104 | 3.2 | 8.0 | 0.00 | 0.84 | 0.00 | 92 | 1015.6 |
| 20260905141457 | 22 | 44 | 3.2 | 9.7 | 0.00 | 0.84 | 0.00 | 92 | 1015.6 |
| 20260905140959 | 22 | 355 | 4.8 | 14.5 | 0.00 | 0.84 | 0.00 | 92 | 1015.7 |
| 20260905140457 | 22 | 360 | 4.8 | 14.5 | 0.00 | 0.84 | 0.00 | 92 | 1015.6 |